Back to catalog

STARLINK-36746

AliveCommunicationsSSO
NORAD 67733·PAYLOAD·🇺🇸 United States

Launched Feb 11, 2026 from Vandenberg Space Force Base

Loading…

Next Passes (next 24 hours)

TLE

FreshSource: CelesTrak SupGP

Epoch: Sep 14, 2026, 15:47 UTC

1 67733C 26026N   26257.65812500  .00005250  00000+0  16263-3 0  2570
2 67733  97.2852 309.5701 0001381  98.9458 328.5111 15.33503037    14

Track STARLINK-36746 in real time with AllMySat

Download on the App Store